北斗三号 M27 (BEIDOU 3M27)

基本信息
目录编号:
61187
目录名称:
BEIDOU 3M27
国际标识:
2024-168C
轨道中心:
EARTH
卫星名称:
北斗三号 M27
卫星全名:
北斗三号 M27 (BEIDOU 3M27)
卫星状态:
在轨 (已飞行506 天)
发射日期:
2024-09-19 UTC
国别 :
中国 (CN)
星等 :
--
轨道信息
数据来源 国际轨道数据 AOE轨道数据
星历时间 2026-02-07T09:11:05+0800
11小时前
查看轨道信息
2026-02-06T05:00:00+0800
1天前
查看轨道信息
半长轴 27906.249km 27906.279km
偏心率 0.0002899 0.0002867
轨道倾角 54.584° 54.585°
近地点辐角 7.826° 5.664°
升交点赤经 306.750° 306.791°
平近点角 174.577° 109.389°
近地点 21520.021km 21520.141km
远地点 21536.203km 21536.143km
周期 773.236分钟 773.237分钟
每日圈数 1.862304 1.862301
详细信息
使用方式:
暂无
2D轨道图
3D轨道图
轨道高度分析图
轨道倾角分析图
轨道综合分析图
查看轨道综合分析图